When you browse on this site, cookies collect data to enhance your experience and personalize the content and advertising you see.
Visit our Privacy Policy to learn more. By continuing to use the site, you agree to this use of cookies and data.

Hourly Weather Kabul

Today, 15 August, Saturday

Time Temperature Precipitation Wind Pressure Humidity
00:00 +24°C° 0 mm 1 mps 607 mmHg 25%
01:00 +23°C° 0 mm 1 mps 607 mmHg 26%
02:00 +23°C° 0 mm 1 mps 606 mmHg 27%
03:00 +22°C° 0 mm 1 mps 606 mmHg 28%
04:00 +21°C° 0 mm 1 mps 606 mmHg 29%
05:00 +20°C° 0 mm 1 mps 605 mmHg 30%
06:00 +22°C° 0 mm 1 mps 606 mmHg 27%
07:00 +24°C° 0 mm 1 mps 607 mmHg 24%
08:00 +25°C° 0 mm 1 mps 608 mmHg 21%
09:00 +27°C° 0 mm 1 mps 608 mmHg 19%
10:00 +28°C° 0 mm 1 mps 608 mmHg 17%
11:00 +30°C° 0 mm 1 mps 609 mmHg 15%
12:00 +31°C° 0 mm 1 mps 609 mmHg 13%
13:00 +34°C° 0 mm 2 mps 609 mmHg 11%
14:00 +35°C° 0 mm 2 mps 609 mmHg 9%
15:00 +35°C° 0 mm 2 mps 609 mmHg 9%
16:00 +36°C° 0 mm 2 mps 609 mmHg 9%
17:00 +36°C° 0 mm 3 mps 609 mmHg 9%
18:00 +34°C° 0 mm 2 mps 609 mmHg 11%
19:00 +31°C° 0 mm 2 mps 608 mmHg 14%
20:00 +29°C° 0 mm 2 mps 608 mmHg 16%
21:00 +28°C° 0 mm 2 mps 608 mmHg 19%
22:00 +27°C° 0 mm 2 mps 608 mmHg 21%
23:00 +26°C° 0 mm 2 mps 608 mmHg 23%

Tomorrow, 16 August, Sunday

Time Temperature Precipitation Wind Pressure Humidity
00:00 +25°C° 0 mm 1 mps 608 mmHg 26%
01:00 +24°C° 0 mm 1 mps 607 mmHg 28%
02:00 +23°C° 0 mm 1 mps 607 mmHg 30%
03:00 +23°C° 0 mm 1 mps 607 mmHg 32%
04:00 +22°C° 0 mm 1 mps 607 mmHg 33%
05:00 +21°C° 0 mm 1 mps 607 mmHg 35%
06:00 +23°C° 0 mm 1 mps 607 mmHg 32%
07:00 +25°C° 0 mm 1 mps 608 mmHg 29%
08:00 +26°C° 0 mm 1 mps 608 mmHg 25%
09:00 +28°C° 0 mm 1 mps 609 mmHg 21%
10:00 +30°C° 0 mm 1 mps 609 mmHg 17%
11:00 +31°C° 0 mm 1 mps 610 mmHg 13%
12:00 +33°C° 0 mm 1 mps 610 mmHg 11%
13:00 +34°C° 0 mm 1 mps 610 mmHg 9%
14:00 +36°C° 0 mm 2 mps 610 mmHg 8%
15:00 +36°C° 0 mm 2 mps 610 mmHg 8%
16:00 +37°C° 0 mm 3 mps 610 mmHg 7%
17:00 +37°C° 0 mm 3 mps 610 mmHg 7%
18:00 +35°C° 0 mm 3 mps 609 mmHg 10%
19:00 +33°C° 0 mm 3 mps 609 mmHg 12%
20:00 +30°C° 0 mm 3 mps 609 mmHg 14%
21:00 +29°C° 0 mm 2 mps 609 mmHg 16%
22:00 +27°C° 0 mm 2 mps 609 mmHg 17%
23:00 +26°C° 0 mm 2 mps 608 mmHg 18%

Day after tomorrow, 17 August, Monday

Time Temperature Precipitation Wind Pressure Humidity
00:00 +25°C° 0 mm 1 mps 608 mmHg 20%
01:00 +25°C° 0 mm 1 mps 607 mmHg 21%
02:00 +24°C° 0 mm 1 mps 607 mmHg 22%
03:00 +23°C° 0 mm 1 mps 607 mmHg 23%
04:00 +22°C° 0 mm 1 mps 606 mmHg 23%
05:00 +22°C° 0 mm 1 mps 606 mmHg 24%
06:00 +24°C° 0 mm 1 mps 607 mmHg 21%
07:00 +24°C° 0 mm 0 mps 608 mmHg 19%
08:00 +25°C° 0 mm 0 mps 609 mmHg 16%
09:00 +29°C° 0 mm 1 mps 609 mmHg 15%
10:00 +31°C° 0 mm 1 mps 609 mmHg 13%
11:00 +32°C° 0 mm 1 mps 610 mmHg 12%
12:00 +33°C° 0 mm 1 mps 610 mmHg 11%
13:00 +35°C° 0 mm 1 mps 610 mmHg 10%
14:00 +37°C° 0 mm 2 mps 610 mmHg 9%
15:00 +37°C° 0 mm 2 mps 610 mmHg 9%
16:00 +37°C° 0 mm 3 mps 609 mmHg 9%
17:00 +38°C° 0 mm 3 mps 609 mmHg 9%
18:00 +36°C° 0 mm 3 mps 609 mmHg 11%
19:00 +33°C° 0 mm 3 mps 608 mmHg 13%
20:00 +30°C° 0 mm 2 mps 608 mmHg 15%
21:00 +29°C° 0 mm 2 mps 608 mmHg 16%
22:00 +28°C° 0 mm 2 mps 608 mmHg 18%
23:00 +27°C° 0 mm 2 mps 608 mmHg 20%

18 August, Tuesday

Time Temperature Precipitation Wind Pressure Humidity
00:00 +26°C° 0 mm 1 mps 608 mmHg 21%
01:00 +25°C° 0 mm 1 mps 607 mmHg 22%
02:00 +24°C° 0 mm 1 mps 607 mmHg 23%
03:00 +24°C° 0 mm 1 mps 606 mmHg 24%
04:00 +23°C° 0 mm 1 mps 606 mmHg 25%
05:00 +22°C° 0 mm 1 mps 606 mmHg 25%
06:00 +24°C° 0 mm 1 mps 607 mmHg 23%
07:00 +26°C° 0 mm 1 mps 608 mmHg 21%
08:00 +27°C° 0 mm 1 mps 609 mmHg 18%
09:00 +29°C° 0 mm 1 mps 609 mmHg 17%
10:00 +30°C° 0 mm 1 mps 609 mmHg 16%
11:00 +32°C° 0 mm 2 mps 610 mmHg 14%
12:00 +34°C° 0 mm 2 mps 609 mmHg 13%
13:00 +35°C° 0 mm 2 mps 609 mmHg 12%
14:00 +36°C° 0 mm 3 mps 609 mmHg 11%
15:00 +36°C° 0 mm 4 mps 609 mmHg 12%
16:00 +36°C° 0 mm 5 mps 609 mmHg 13%
17:00 +36°C° 0 mm 6 mps 609 mmHg 13%
18:00 +34°C° 0 mm 5 mps 608 mmHg 16%
19:00 +30°C° 0 mm 4 mps 608 mmHg 19%
20:00 +28°C° 0 mm 3 mps 607 mmHg 22%
21:00 +27°C° 0 mm 2 mps 607 mmHg 24%
22:00 +26°C° 0 mm 2 mps 607 mmHg 26%
23:00 +25°C° 0 mm 1 mps 607 mmHg 29%

19 August, Wednesday

Time Temperature Precipitation Wind Pressure Humidity
00:00 +24°C° 0 mm 1 mps 607 mmHg 30%
01:00 +24°C° 0 mm 1 mps 607 mmHg 31%
02:00 +23°C° 0 mm 1 mps 606 mmHg 32%
03:00 +22°C° 0 mm 1 mps 606 mmHg 33%
04:00 +22°C° 0 mm 1 mps 606 mmHg 34%
05:00 +21°C° 0 mm 1 mps 605 mmHg 36%
06:00 +22°C° 0 mm 1 mps 606 mmHg 33%
07:00 +24°C° 0 mm 1 mps 606 mmHg 30%
08:00 +25°C° 0 mm 1 mps 607 mmHg 26%
09:00 +26°C° 0 mm 1 mps 607 mmHg 24%
10:00 +28°C° 0 mm 1 mps 608 mmHg 22%
11:00 +30°C° 0 mm 2 mps 608 mmHg 19%
12:00 +31°C° 0 mm 2 mps 608 mmHg 17%
13:00 +32°C° 0 mm 2 mps 608 mmHg 15%
14:00 +35°C° 0 mm 2 mps 609 mmHg 13%
15:00 +35°C° 0 mm 4 mps 608 mmHg 13%
16:00 +34°C° 0 mm 5 mps 608 mmHg 12%
17:00 +34°C° 0 mm 6 mps 608 mmHg 12%
18:00 +32°C° 0 mm 5 mps 607 mmHg 16%
19:00 +29°C° 0 mm 4 mps 607 mmHg 19%
20:00 +27°C° 0 mm 3 mps 607 mmHg 22%
21:00 +26°C° 0 mm 3 mps 607 mmHg 25%
22:00 +25°C° 0 mm 2 mps 606 mmHg 27%
23:00 +23°C° 0 mm 2 mps 606 mmHg 29%

20 August, Thursday

Time Temperature Precipitation Wind Pressure Humidity
00:00 +23°C° 0 mm 1 mps 606 mmHg 31%
01:00 +22°C° 0 mm 1 mps 606 mmHg 32%
02:00 +21°C° 0 mm 1 mps 605 mmHg 33%
03:00 +21°C° 0 mm 1 mps 605 mmHg 34%
04:00 +20°C° 0 mm 1 mps 605 mmHg 35%
05:00 +18°C° 0 mm 0 mps 605 mmHg 36%
06:00 +19°C° 0 mm 0 mps 605 mmHg 32%
07:00 +21°C° 0 mm 0 mps 606 mmHg 28%
08:00 +22°C° 0 mm 0 mps 607 mmHg 24%
09:00 +26°C° 0 mm 1 mps 607 mmHg 22%
10:00 +28°C° 0 mm 1 mps 608 mmHg 20%
11:00 +29°C° 0 mm 2 mps 608 mmHg 17%
12:00 +30°C° 0 mm 2 mps 608 mmHg 16%
13:00 +32°C° 0 mm 2 mps 608 mmHg 15%
14:00 +34°C° 0 mm 2 mps 608 mmHg 14%
15:00 +34°C° 0 mm 3 mps 608 mmHg 14%
16:00 +34°C° 0 mm 4 mps 608 mmHg 15%
17:00 +34°C° 0 mm 4 mps 608 mmHg 16%
18:00 +32°C° 0 mm 4 mps 608 mmHg 20%
19:00 +29°C° 0 mm 4 mps 608 mmHg 24%
20:00 +27°C° 0 mm 4 mps 608 mmHg 29%
21:00 +26°C° 0.1 mm 3 mps 608 mmHg 31%
22:00 +25°C° 0.1 mm 3 mps 608 mmHg 34%
23:00 +24°C° 0.1 mm 2 mps 608 mmHg 37%
Show more